Simultaneous Nadir Overpasses (SNOs) Predictions

Prediction of SNOs between AQUA and METOP-C Satellite Orbit:

Table of predicted SNOs for the next 14.0 days since TLE Epoch: 12/7/2018
Index Date (AQUA) Time (AQUA) Lat,Lon (AQUA) SZA (AQUA ) Date (METOP-C) Time (METOP-C) Lat,Lon (METOP-C) SZA (METOP-C ) Distance(km) Time Diff (sec)
1 12/08/2018 22:43:21 -73.80, 13.43 83.49 12/08/2018 22:42:30 -73.79, 13.39 83.49 1.61 51
2 12/08/2018 23:32:50 73.88,-179.11 96.61 12/08/2018 23:33:09 73.86,-179.10 96.59 2.23 19
3 12/09/2018 00:22:30 -74.62, -13.20 82.62 12/09/2018 00:23:35 -74.60, -9.89 82.69 97.68 65
4 12/11/2018 18:17:36 -73.81, 79.85 83.22 12/11/2018 18:16:53 -73.82, 79.88 83.20 1.78 43
5 12/11/2018 19:07:05 73.89,-112.69 96.88 12/11/2018 19:07:32 73.89,-112.62 96.87 2.13 27
6 12/14/2018 13:51:51 -73.82, 146.26 83.00 12/14/2018 13:51:17 -73.80, 146.26 83.02 2.22 34
7 12/14/2018 14:41:19 73.85, -46.17 97.03 12/14/2018 14:41:56 73.86, -46.27 97.05 3.27 37
8 12/17/2018 09:26:05 -73.85,-147.35 82.84 12/17/2018 09:25:39 -73.84,-147.25 82.85 3.36 26
9 12/17/2018 10:15:33 73.87, 20.22 97.19 12/17/2018 10:16:18 73.89, 20.21 97.21 1.79 45
10 12/20/2018 04:10:41 73.17, 112.87 96.54 12/20/2018 04:09:35 73.13, 110.23 96.57 85.45 66
11 12/20/2018 05:00:19 -73.82, -80.86 82.79 12/20/2018 05:00:03 -73.82, -80.88 82.79 0.66 16
12 12/20/2018 05:49:48 73.90, 86.60 97.30 12/20/2018 05:50:41 73.91, 86.68 97.31 2.91 53




NCC Satellite Simultaneous Nadir Overpasses (SNOs) Prediction Service
